www.pogodaiklimat.ru

Погода и климат >> Архив погоды >> Россия >> Краснодарский край >> Сочи аэропорт (Адлер)


ПОГОДА в Сочи аэропорт (Адлере)

  • Прогноз погоды в Сочи аэропорт (Адлере)
  • Монитор погоды в Сочи аэропорт (Адлере)

АРХИВ ПОГОДЫ в Сочи аэропорт (Адлере)

Время (UTC), дата Ветер
(напр.,м/с)
 
Видим.   Явления Облачность Т
(С)
Тd
(С)
f
(%)
Тe
(С)
Тes
(С)
Комфортность P
(гПа)
Po
(гПа)
Тmin
(С)
Tmax
(С)
R
(мм)
R24
(мм)
S
(см)
15 11.02 Ю 1 10 км 3/3 600 м
[Sc]
+8.9 +6.7 86 +8 +8 1020.5 1018.7 +11.8
18 11.02 В 2 4000 м ясно +5.7 +5.2 97 +3 +3 1020.4 1018.5
21 11.02 В 4 4000 м ясно +6.0 +4.6 91 +2 +2 1019.7 1017.8
00 12.02 В 1 4000 м ясно +3.9 +2.9 93 +2 +2 1018.7 1016.8
03 12.02 В 6 4000 м 3/0
[Ci fib]
+5.0 +2.0 81 -0 -0 1017.3 1015.4 +2.8
06 12.02 СВ 5 20 км 10/0
[Ci fib]
+6.4 +2.2 74 +2 +3 1018.0 1016.1
09 12.02 ЮВ 3 20 км 10/0
[Ci fib]
+13.5 +1.7 45 +13 +17 1017.2 1015.4
12 12.02 ЮВ 4 20 км 10/0
[Ci fib]
+13.6 +2.5 47 +12 +14 1016.3 1014.5
15 12.02 СВ 2 20 км 10/0
[Ac trans Ci fib]
+9.3 +3.0 65 +8 +8 1016.2 1014.4 +14.4
18 12.02 СВ 1 4000 м 5/0
[Ci fib]
+7.4 +2.7 72 +7 +7 1017.7 1015.8
21 12.02 В 6 4000 м 3/0
[Ci fib]
+8.3 +1.1 60 +5 +5 1018.0 1016.2
00 13.02 СВ 4 4000 м ясно +8.5 +0.2 56 +6 +6 1018.7 1016.7
03 13.02 В 5 4000 м 3/0
[Ac trans]
+7.4 -0.7 56 +4 +4 1019.3 1017.4 +5.8
06 13.02 В 4 20 км 10/0
[Ac trans Ci fib]
+9.1 -0.5 51 +7 +8 1021.2 1019.4
09 13.02 ЮВ 4 20 км 10/0
[Ac trans Ci fib]
+14.7 -1.2 33 +14 +17 1021.0 1019.2
12 13.02 ЮВ 4 20 км 10/0
[Ci fib]
+12.2 +3.2 54 +10 +12 1021.1 1019.3
15 13.02 В 2 20 км 10/0
[Ci fib]
+10.0 +6.1 77 +9 +9 1021.1 1019.3 +16.2
18 13.02 ЮВ 1 4000 м 10/0
[Ci fib]
+9.1 +4.3 72 +9 +9 1021.9 1020.1
21 13.02 В 2 4000 м 10/10 270 м
[St]
+8.7 +7.7 93 +7 +7 1022.4 1020.6
00 14.02 ЮВ 5 4000 м 10/8 450 м
[St Ac und]
+8.9 +6.1 83 +5 +5 1022.8 1021.0
03 14.02 В 3 4000 м 10/3 750 м
[Sc Ci fib]
+7.7 +4.8 82 +5 +5 1021.8 1020.0 +7.3
06 14.02 СВ 2 20 км 10/10 1110 м
[Sc]
+8.3 +4.6 77 +7 +7 1022.0 1020.2 +6.2
09 14.02 Ю 3 20 км 10/10 1000 м
[Sc]
+10.6 +5.6 71 +9 +9 1020.5 1018.7
12 14.02 ЮЗ 3 10 км 10/6 900 м
[Sc Ci fib]
+10.7 +6.7 76 +9 +10 1019.1 1017.3
15 14.02 З 2 10 км 10/4 800 м
[Sc Ac und]
+8.6 +6.4 86 +7 +7 1017.8 1016.0 +11.1
18 14.02 штиль 0 4000 м 10/6 420 м
[St Ci fib]
+7.9 +6.5 91 +7 +7 1017.7 1015.9
21 14.02 В 1 4000 м 10/10 400 м
[St]
+8.2 +6.4 88 +7 +7 1017.3 1015.5
00 15.02 СВ 2 4000 м 10/10 930 м
[Cb cap]
+8.2 +7.0 92 +6 +6 1017.6 1015.8
03 15.02 штиль 0 4000 м 10/10 900 м
[Sc]
+7.9 +6.4 90 +7 +7 1017.4 1015.6 +7.3
06 15.02 штиль 0 20 км 10/3 1000 м
[Sc Ac As]
+6.7 +5.8 94 +6 +6 1018.5 1016.6 +5.4
09 15.02 З 1 20 км 10/3 600 м
[Cu Sc Cs]
+10.5 +5.8 73 +10 +15 1018.4 1016.6
12 15.02 З 2 20 км 10/1 1000 м
[Sc Ac As]
+10.7 +6.7 76 +9 +10 1017.5 1015.7
15 15.02 СЗ 3 10 км 10/5 1320 м
[Sc Ac As]
+9.4 +6.1 80 +7 +7 1017.8 1016.0 +11.3
18 15.02 штиль 0 4000 м 10/8 1500 м
[Sc Cs]
+7.4 +5.1 85 +7 +7 1018.7 1016.8
21 15.02 СВ 1 4000 м 10/0
[Ci fib]
+5.3 +3.9 91 +4 +4 1018.5 1016.6
00 16.02 В 2 4000 м 9/9 420 м
[Sc]
+4.6 +3.1 90 +2 +2 1019.0 1017.1
03 16.02 СВ 3 4000 м 8/5 1300 м
[Sc Ac trans]
+4.5 +2.2 85 +1 +1 1019.2 1017.3 +3.5
06 16.02 СВ 2 20 км 9/3 600 м
[Sc Ac trans]
+5.5 +3.3 86 +3 +4 1020.7 1018.8 +3.2
09 16.02 З 2 10 км 10/10 1500 м
[Sc]
+9.9 +5.8 76 +8 +8 1021.1 1019.3
12 16.02 З 2 10 км 10/6 1500 м
[Sc Ac trans]
+9.6 +6.8 83 +8 +9 1021.0 1019.2
15 16.02 СЗ 7-10
{10}
10 км 10/4 1080 м
[Sc Ac trans]
+7.9 +2.7 70 +4 +4 1021.6 1019.8 +11.0
18 16.02 З 6
{11}
4000 м 10/10 900 м
[Cb cap]
+7.3 +3.2 75 +3 +3 1023.0 1021.1
21 16.02 СЗ 6-10
{11}
4000 м 10/10 960 м
[Sc]
+6.4 +0.8 67 +2 +2 1023.9 1022.0
00 17.02 С 3
{10}
4000 м 10/10 570 м
[Sc]
+5.9 +2.7 80 +3 +3 1024.1 1022.2
03 17.02 СЗ 2 4000 м 10/8 1000 м
[Sc Ac trans]
+6.1 +2.4 77 +4 +4 1024.2 1022.3 +5.7
06 17.02 В 1 20 км в посл. час ливневой дождь 10/10 720 м
[Cb cap]
+5.7 +4.1 89 +4 +4 1025.7 1023.8 +5.3
09 17.02 СВ 1 20 км 10/10 900 м
[Cb cap]
+7.1 +3.8 80 +6 +6 1026.0 1024.1
12 17.02 Ю 3 10 км слаб. ливневой дождь 10/10 840 м
[]
+8.0 +3.8 75 +5 +5 1025.2 1023.4
15 17.02 В 3 10 км слаб. ливневой дождь 10/10 800 м
[Cb cap]
+6.7 +5.1 90 +4 +4 1024.8 1022.9 +8.6 0.0
18 17.02 СВ 2 4000 м слаб. ливневой дождь 10/10 900 м
[Cb cap]
+6.2 +5.8 97 +4 +4 1025.0 1023.1
21 17.02 СВ 3 4000 м слаб. ливневой дождь 10/10 1440 м
[Cb cap]
+6.2 +5.8 97 +3 +3 1023.4 1021.5
00 18.02 ЮВ 1 4000 м слаб. ливневой дождь 10/10 400 м
[Cb cap]
+6.1 +5.9 99 +5 +5 1022.5 1020.6
03 18.02 В 2 4000 м в посл. час ливневой дождь 10/10 750 м
[Cb cap]
+5.9 +4.7 92 +3 +3 1020.9 1019.0 +5.6 4
06 18.02 СВ 3 10 км слаб. ливневой дождь 10/10 450 м
[Cb cap]
+5.9 +5.4 97 +2 +2 1020.4 1018.5
09 18.02 СВ 3 10 км слаб. ливневой дождь 10/10
[Cb cap]
+6.0 +5.6 97 +3 +3 1019.5 1017.6

 

Местоположение метеостанции Сочи аэропорт (Адлер) (Краснодарский край, Россия): широта 43.43 долгота 39.90 высота над уровнем моря 15 м.

В архиве по умолчанию представлена погода в Сочи аэропорт (Адлере) за последнюю неделю. Архивные данные за месяц целиком и за предыдущие месяцы, начиная с января 2011 года, Вы можете получить, выбрав интересующий диапазон дат из раскрывающегося списка и нажав кнопку "Ввод!".


*Определитесь, кто Вы:
робот инопланетянин человек

Внимание! Время в таблицах - всемирное. Для получения местного времени необходимо прибавить поправку, которая равна 3 ч.

Смотрите также архив погоды в соседних городах и на ближайших метеорологических станциях:

Погода в Имеретинке (Краснодарский край, Россия) (5 км)
Погода в Сочи (Краснодарский край, Россия) (20 км)
Погода в Кепше (Краснодарский край, Россия) (24 км)
Погода в Красной Поляне (Краснодарский край, Россия) (37 км)
Погода в Горная Карусель 1500 (Краснодарский край, Россия) (40 км)
Погода в Горная Карусель 1000 (Краснодарский край, Россия) (40 км)
Погода на Кордоне Лаура (Краснодарский край, Россия) (44 км)
Погода в Солох Ауле (Краснодарский край, Россия) (47 км)
Погода в Кичмае (Краснодарский край, Россия) (54 км)
Погода в Гузерипле (Адыгея, Россия) (66 км)

Пояснения к столбцам:

Ветер - указаны скорость ветра в м/с - средняя за 10 мин, порывы в срок и между сроками (в фигурных скобках) и направление, откуда дует ветер: С - северный, СВ - северо-восточный, В - восточный, ЮВ - юго-восточный, Ю - южный, ЮЗ - юго-западный, З - западный, СЗ - северо-западный.
Видимость - горизонтальная дальность видимости в метрах или километрах. При видимости от 1 до 10 км при отсутствии осадков обычно наблюдается дымка, при ухудшении видимости до 1 км и менее - туман. В сухую погоду видимость может ухудшаться дымом, пылью или мглою.
Явления - указаны атмосферные явления, наблюдавшиеся в срок или в последний час перед сроком; фигурными скобками обозначены явления, наблюдавшиеся между сроками (за 1-3 часа до срока); квадратными скобками обозначены град или гололедные отложения с указанием их диаметра в мм.
Облачность - указаны через наклонную черту общая и нижняя облачность в баллах и высота нижней границы облаков в метрах; квадратными скобками обозначены формы облаков: Ci - перистые, Cs - перисто-слоистые, Cc - перисто-кучевые, Ac - высококучевые, As - высокослоистые, Sc - слоисто-кучевые, Ns - слоисто-дождевые, Cu - кучевые, Cb - кучево-дождевые. Подробнее классификацию облаков см. в Атласе облаков (PDF).
T - Температура воздуха - температура, измеренная на высоте 2 м над землей.
Td - Температура точки росы - температура, при понижении до которой содержащийся в воздухе водяной пар достигнет насыщения.
f - Относительная влажность воздуха - влажноcть воздуха, измеренная на высоте 2 м над землей.
Te - Эффективная температура - температура, которую ощущает одетый по сезону человек в тени. Характеристика душности погоды. При расчете учитывается влияние влажности воздуха и скорости ветра на теплоощущения человека.
Tes - Эффективная температура на солнце - температура, которую ощущает человек, с поправкой на солнечный нагрев. Характеристика знойности погоды. Зависит от высоты солнца над горизонтом, облачности и скорости ветра. Ночью, в пасмурную погоду, а также при ветре 12 м/с и более поправка равна нулю.
P - Атмосферное давление - приведенное к уровню моря атмосферное давление.
Po - Атмосферное давление - измеренное на уровне метеостанции атмосферное давление.
Tmin - Минимальная температура - минимум температуры воздуха на высоте 2 м над землей.
Tmax - Максимальная температура - максимум температуры воздуха на высоте 2 м над землей.
R - Количество осадков - Количество выпавших осадков за период времени, мм. При наведении курсора мыши на число - период времени, за который выпало указанное количество осадков.
R24 - Количество осадков - Количество выпавших осадков за 24 часа, мм.
S - Снежный покров - Высота снежного покрова, см. При наведении курсора мыши на число - состояние снежного покрова и степень покрытия местности в баллах.